Oak Island, MN

6:34 PM CST on February 14, 2016 (GMT -0600)
Flag Island

Weather History for KFGN - June, 2013

Change the Weather History Date:

Tuesday, June 25, 2013

  Actual Average Record
Temperature  
Mean Temperature 75 °F -  
Max Temperature 84 °F 67 °F 84 °F (2013)
Min Temperature 66 °F 55 °F 48 °F (2004)
Cooling Degree Days 10    
Growing Degree Days 25 (Base 50)    
Moisture  
Dew Point 63 °F    
Average Humidity 70    
Maximum Humidity 89    
Minimum Humidity 48    
Precipitation  
Precipitation 0.00 in - - ()
Sea Level Pressure  
Sea Level Pressure 29.73 in    
Wind  
Wind Speed 1 mph (SSE)    
Max Wind Speed 7 mph    
Max Gust Speed -    
Visibility 4 miles    
Events      
Averages and records for this station are not official NWS values.
T = Trace of Precipitation, MM = Missing Value Source: NWS Daily Summary

Daily Weather History Graph

Daily Weather History Graph

Search for Another Location

Airport or City:

Trip Planner

Search our weather history database for the weather conditions in past years. The results will help you decide how hot, cold, wet, or windy it might be!

Date:

Astronomy

Jun. 25, 2013 Rise Set
Actual Time 5:15 AM CDT 9:29 PM CDT
Civil Twilight 4:31 AM CDT 10:12 PM CDT
Nautical Twilight 3:29 AM CDT 11:15 PM CDT
Astronomical Twilight 1:54 AM CDT 12:50 AM CDT
Moon 10:55 PM CDT (6/25) 8:11 AM CDT (6/25)
Length of Visible Light 17h 41m
Length of Day
16h 14m
Waning Gibbous, 92% of the Moon is Illuminated
Jun 25
Waning Gibbous
Jun 29
Last Quarter
Jul 8
New
Jul 15
First Quarter
Jul 22
Full

Hourly Weather History & Observations

Time (CDT) Temp. Heat Index Dew Point Humidity Pressure Visibility Wind Dir Wind Speed Gust Speed Precip Events Conditions
12:13 AM 71.6 °F - 57.2 °F 60% 29.76 in 2.5 mi Calm Calm - N/A   Haze
12:33 AM 71.6 °F - 57.2 °F 60% 29.76 in 3.0 mi Calm Calm - N/A   Haze
12:54 AM 71.6 °F - 55.4 °F 57% 29.76 in 4.0 mi Calm Calm - N/A   Haze
1:13 AM 69.8 °F - 59.0 °F 68% 29.76 in 1.0 mi Calm Calm - N/A   Haze
1:33 AM 69.8 °F - 59.0 °F 68% 29.75 in 2.5 mi Calm Calm - N/A   Haze
1:54 AM 68.0 °F - 60.8 °F 78% 29.75 in 3.0 mi Calm Calm - N/A   Haze
2:13 AM 66.2 °F - 60.8 °F 83% 29.75 in 1.0 mi Calm Calm - N/A   Haze
2:33 AM 66.2 °F - 60.8 °F 83% 29.75 in 3.0 mi Calm Calm - N/A   Haze
2:54 AM 66.2 °F - 60.8 °F 83% 29.75 in 7.0 mi Calm Calm - N/A   Clear
3:13 AM 68.0 °F - 60.8 °F 78% 29.75 in 7.0 mi Calm Calm - N/A   Clear
3:33 AM 66.2 °F - 60.8 °F 83% 29.75 in 7.0 mi Calm Calm - N/A   Clear
3:54 AM 66.2 °F - 60.8 °F 83% 29.75 in 5.0 mi Calm Calm - N/A   Haze
4:13 AM 66.2 °F - 62.6 °F 88% 29.75 in 5.0 mi Calm Calm - N/A   Clear
4:33 AM 66.2 °F - 60.8 °F 83% 29.75 in 5.0 mi Calm Calm - N/A   Haze
4:54 AM 66.2 °F - 62.6 °F 88% 29.75 in 5.0 mi Calm Calm - N/A   Clear
5:13 AM 66.2 °F - 62.6 °F 88% 29.76 in 4.0 mi Calm Calm - N/A   Clear
5:33 AM 66.2 °F - 62.6 °F 88% 29.76 in 4.0 mi Calm Calm - N/A   Clear
5:54 AM 66.2 °F - 60.8 °F 83% 29.77 in 4.0 mi Calm Calm - N/A   Haze
6:13 AM 66.2 °F - 62.6 °F 88% 29.76 in 4.0 mi Calm Calm - N/A   Clear
6:33 AM 66.2 °F - 62.6 °F 88% 29.77 in 4.0 mi Calm Calm - N/A   Clear
6:54 AM 68.0 °F - 64.4 °F 88% 29.77 in 4.0 mi Calm Calm - N/A   Clear
7:13 AM 69.8 °F - 62.6 °F 78% 29.77 in 4.0 mi Calm Calm - N/A   Haze
7:33 AM 69.8 °F - 62.6 °F 78% 29.77 in 4.0 mi Calm Calm - N/A   Haze
7:54 AM 69.8 °F - 62.6 °F 78% 29.77 in 4.0 mi Calm Calm - N/A   Haze
8:13 AM 69.8 °F - 62.6 °F 78% 29.77 in 5.0 mi Calm Calm - N/A   Haze
8:33 AM 69.8 °F - 62.6 °F 78% 29.76 in 4.0 mi SSE 5.8 mph - N/A   Haze
8:54 AM 69.8 °F - 62.6 °F 78% 29.76 in 4.0 mi SSE 5.8 mph - N/A   Haze
9:13 AM 69.8 °F - 62.6 °F 78% 29.76 in 4.0 mi SSE 5.8 mph - N/A   Haze
9:33 AM 69.8 °F - 62.6 °F 78% 29.76 in 4.0 mi SSE 4.6 mph - N/A   Haze
9:54 AM 69.8 °F - 62.6 °F 78% 29.76 in 5.0 mi SSE 4.6 mph - N/A   Haze
10:13 AM 71.6 °F - 62.6 °F 73% 29.76 in 4.0 mi SSE 3.5 mph - N/A   Haze
10:33 AM 69.8 °F - 64.4 °F 83% 29.76 in 4.0 mi SSE 6.9 mph - N/A   Haze
10:54 AM 71.6 °F - 62.6 °F 73% 29.76 in 4.0 mi SSE 4.6 mph - N/A   Haze
11:13 AM 71.6 °F - 64.4 °F 78% 29.76 in 4.0 mi SSE 3.5 mph - N/A   Haze
11:33 AM 71.6 °F - 64.4 °F 78% 29.76 in 4.0 mi SSE 3.5 mph - N/A   Haze
11:54 AM 73.4 °F - 66.2 °F 78% 29.76 in 4.0 mi Calm Calm - N/A   Haze
12:13 PM 75.2 °F - 66.2 °F 73% 29.76 in 4.0 mi Calm Calm - N/A   Haze
12:33 PM 75.2 °F - 68.0 °F 78% 29.76 in 4.0 mi South 4.6 mph - N/A   Haze
12:54 PM 73.4 °F - 66.2 °F 78% 29.76 in 4.0 mi SSE 3.5 mph - N/A   Haze
1:13 PM 75.2 °F - 66.2 °F 73% 29.76 in 4.0 mi SSE 3.5 mph - N/A   Haze
1:33 PM 77.0 °F - 66.2 °F 69% 29.76 in 4.0 mi Calm Calm - N/A   Haze
1:54 PM 78.8 °F - 66.2 °F 65% 29.75 in 4.0 mi Calm Calm - N/A   Haze
2:13 PM 78.8 °F - 66.2 °F 65% 29.75 in 4.0 mi Calm Calm - N/A   Haze
2:33 PM 80.6 °F 82.3 °F 64.4 °F 58% 29.74 in 4.0 mi Calm Calm - N/A   Haze
2:53 PM 80.6 °F 82.7 °F 66.2 °F 61% 29.74 in 4.0 mi Calm Calm - N/A   Haze
3:13 PM 80.6 °F 82.7 °F 66.2 °F 61% 29.74 in 4.0 mi Calm Calm - N/A   Haze
3:33 PM 82.4 °F 84.6 °F 66.2 °F 58% 29.74 in 4.0 mi Calm Calm - N/A   Haze
3:53 PM 82.4 °F 83.4 °F 62.6 °F 51% 29.73 in 4.0 mi SSE 3.5 mph - N/A   Haze
4:14 PM 82.4 °F 83.4 °F 62.6 °F 51% 29.72 in 4.0 mi SSE 4.6 mph - N/A   Haze
4:33 PM 82.4 °F 83.4 °F 62.6 °F 51% 29.71 in 4.0 mi SSE 4.6 mph - N/A   Haze
4:53 PM 82.4 °F 83.4 °F 62.6 °F 51% 29.71 in 4.0 mi SSE 4.6 mph - N/A   Haze
5:14 PM 82.4 °F 83.4 °F 62.6 °F 51% 29.70 in 4.0 mi SSE 3.5 mph - N/A   Haze
5:33 PM 82.4 °F 83.4 °F 62.6 °F 51% 29.69 in 4.0 mi SSE 3.5 mph - N/A   Haze
5:53 PM 82.4 °F 82.9 °F 60.8 °F 48% 29.69 in 4.0 mi Calm Calm - N/A   Haze
6:14 PM 82.4 °F 83.4 °F 62.6 °F 51% 29.68 in 4.0 mi Calm Calm - N/A   Haze
6:33 PM 82.4 °F 83.4 °F 62.6 °F 51% 29.68 in 4.0 mi Calm Calm - N/A   Haze
6:53 PM 82.4 °F 83.4 °F 62.6 °F 51% 29.68 in 4.0 mi Calm Calm - N/A   Haze
7:14 PM 84.2 °F 85.0 °F 62.6 °F 48% 29.67 in 4.0 mi Calm Calm - N/A   Haze
7:33 PM 82.4 °F 83.4 °F 62.6 °F 51% 29.67 in 4.0 mi Calm Calm - N/A   Haze
7:53 PM 82.4 °F 83.4 °F 62.6 °F 51% 29.67 in 4.0 mi Calm Calm - N/A   Haze
8:14 PM 82.4 °F 83.4 °F 62.6 °F 51% 29.66 in 4.0 mi Calm Calm - N/A   Haze
8:33 PM 80.6 °F 81.8 °F 62.6 °F 54% 29.66 in 4.0 mi Calm Calm - N/A   Haze
8:53 PM 80.6 °F 81.8 °F 62.6 °F 54% 29.66 in 4.0 mi Calm Calm - N/A   Haze
9:14 PM 80.6 °F 82.3 °F 64.4 °F 58% 29.66 in 4.0 mi Calm Calm - N/A   Haze
9:33 PM 80.6 °F 82.3 °F 64.4 °F 58% 29.67 in 4.0 mi Calm Calm - N/A   Haze
9:53 PM 78.8 °F - 66.2 °F 65% 29.66 in 5.0 mi SSE 3.5 mph - N/A   Haze
10:14 PM 78.8 °F - 69.8 °F 74% 29.66 in 4.0 mi SSE 3.5 mph - N/A   Haze
10:34 PM 77.0 °F - 71.6 °F 83% 29.67 in 7.0 mi Calm Calm - N/A   Clear
10:53 PM 77.0 °F - 71.6 °F 83% 29.67 in 7.0 mi Calm Calm - N/A   Clear
11:14 PM 75.2 °F - 71.6 °F 89% 29.66 in 7.0 mi Calm Calm - N/A   Clear
11:34 PM 75.2 °F - 69.8 °F 83% 29.64 in 7.0 mi Calm Calm - N/A   Clear
11:52 PM 77.0 °F - 68.0 °F 74% 29.64 in 7.0 mi SE 4.6 mph - N/A   Clear